Starlink 5544

operational
NORAD ID: 55757 Int'l Des: 2023-028 Owner: SPXS Country: US Constellation: starlink
LEOCIRCULAR

关于 Starlink 5544

正在加载描述...

实时位置

正在加载3D地球...

即将过境

高度历史

Altitude vs Time

uPlot chart will show altitude changes over time

两行轨道根数

1 55757U 23028S 25259.59293906 .00000644 00000-0 61754-4 0 9991
2 55757 69.9993 323.3576 0003276 270.9948 89.0836 14.98331612139962
Epoch: Sep 16, 2025 • Age: 37 hours

当前状态

高度 578.4 km
速度 7.57 km/s
星下点 38.52°N, 70.07°W
发射日期 Mar 3, 2023
运行时间 2.5 years
类型 internet

技术详情

分类 Payload
质量 305.00 kg
干质量 290.00 kg
总质量 305.00 kg
长度 0.20 m
直径 2.80 m
跨度 9.00 m
形状 Box + pan
制造商 SPXS
平台类型 Starlink
阶段状态 In Orbit
所有者/国家 SPXS/US

大型星座

Loading constellations...